Regional Weather Roundup
Issued by NWS

Current Version | Previous Version | Text Only | Print | Product List | Glossary On
Versions: 1 2 3 4 5 6 7 8 9 10 11 12 13 14 15 16 17 18 19 20 21 22 23 24 25 26 27 28 29 30 31 32 33 34 35 36 37 38 39 40 41 42 43 44 45 46 47 48 49 50
000
ASUS46 KLOX 020402
RWRCA

SOUTHERN CALIFORNIA WEATHER ROUNDUP
NATIONAL WEATHER SERVICE OXNARD CALIFORNIA
900 PM PDT WED APR 01 2015

NOTE: "FAIR" INDICATES FEW OR NO CLOUDS BELOW 12,000 FEET WITH NO
SIGNIFICANT WEATHER AND/OR OBSTRUCTIONS TO VISIBILITY.

  -  STATIONS PRECEEDED BY AN ASTERISK (*) ARE NOT NWS OR FAA
     STATIONS AND ARE NOT SUBJECT TO NWS AND FAA QUALITY CONTROL.

CAZ041-042-087-020500-
LA AND ORANGE COUNTY COASTAL AREAS


CITY           SKY/WX    TMP DP  RH WIND       PRES   REMARKS
L.A. DOWNTOWN  CLEAR     61  50  67 CALM      29.93R
L.A. AIRPORT   CLEAR     60  48  64 W20       29.94R
LONG BEACH     CLEAR     64  44  48 W9        29.94R

CITY           SKY/WX    TMP DP  RH WIND       PRES   REMARKS
AVALON           N/A     55 N/A N/A MISG        N/A
FULLERTON      CLEAR     65  45  48 SW6       29.93R
*GETTY CENTER    N/A    N/A N/A N/A NE3         N/A
HAWTHORNE      CLEAR     63  49  60 W9        29.94R
*LEO CARRILLO    N/A     56  43  61 N3          N/A
*LOS ALAMITOS  CLEAR     62  48  61 S1        29.94R
*REDONDO BEACH   N/A     61  49  64 W10       29.94R
SANTA ANA      PTCLDY    63  53  70 S5        29.95R
STA MONICA APT CLEAR     63  51  65 W6        29.93R
*UCLA            N/A     59  48  67 CALM      29.91R

$$

CAZ547-548-048-020500-
LA COUNTY VALLEYS AND INLAND EMPIRE


CITY           SKY/WX    TMP DP  RH WIND       PRES   REMARKS
BURBANK        CLEAR     63  47  55 SE7       29.92R
VAN NUYS       CLEAR     63  47  55 E5        29.92R

CITY           SKY/WX    TMP DP  RH WIND       PRES   REMARKS
CORONA AIRPORT MOCLDY    63  48  57 CALM      29.94R
CHINO          CLEAR     61  50  67 W8        29.95R
*CLAREMONT       N/A     55  42  61 NW2         N/A
MARCH AFB      CLEAR     59  46  61 W7        29.95R
*NORTHRIDGE      N/A     64  45  48 E1          N/A
ONTARIO        PTCLDY    63  45  51 W10       29.94R
*PASADENA        N/A     61  48  63 E1          N/A
POMONA         CLEAR     59  41  51 W6        29.98R
RIVERSIDE      CLEAR     63  48  58 W6        29.94R
SAN BERNARDINO NOT AVBL
*SAN RAFAEL HI   N/A     55  41  59 SW2         N/A
*SAUGUS          N/A     68  37  32 W7          N/A
*WHITEMAN AP   NOT AVBL
*WHITTIER HILL   N/A     58  43  56 S6          N/A
*WOODLAND HILL   N/A     61  46  59 NE1         N/A

$$

CAZ054-055-020500-
LA AND SAN BERNARDINO COUNTY MOUNTAINS


CITY           SKY/WX    TMP DP  RH WIND       PRES   REMARKS
*ACTON           N/A     62  42  47 SW6G20      N/A
*BIG BEAR AIRP CLEAR     43  23  45 CALM      30.06R
*BIG PINES       N/A     46  19  33 S2          N/A
*CHILAO          N/A     49  38  66 E2          N/A
MT WILSON NWS    N/A     46  25  42 SW9         N/A
SANDBERG       CLEAR     48  23  37 N24       30.02R
*WARM SPRINGS    N/A     51  13  22 W18         N/A

$$

CAZ028-029-059-060-099-020500-
ANTELOPE VALLEY AND SURROUNDING AREAS


CITY           SKY/WX    TMP DP  RH WIND       PRES   REMARKS
LANCASTER      CLEAR     55  22  27 W24       29.96R
PALMDALE       CLEAR     56  21  25 W24       29.95R
*POPPY PARK      N/A     53  22  30 W21G35      N/A

CITY           SKY/WX    TMP DP  RH WIND       PRES   REMARKS
29 PALMS       CLEAR     71  33  24 SW14      29.90R
BARSTOW/DAGGET CLEAR     69   6   8 W21       29.86R
BISHOP         PTCLDY    55   9  16 N13       29.86R
CHINA LAKE     PTCLDY    62  18  18 SW17      29.84R
EDWARDS AFB    PTCLDY    59  20  21 W14G25    29.93R
MOJAVE         FAIR      54  23  30 SW22G35   29.94R
NEEDLES        CLEAR     79   7   6 SW10      29.75R
VICTORVILLE    CLEAR     57  14  18 W16G25    29.95R

$$

CAZ039-040-020500-
VENTURA AND SANTA BARBARA COUNTY COAST


CITY           SKY/WX    TMP DP  RH WIND       PRES   REMARKS
CAMARILLO      CLEAR     59  46  62 SE6       29.91R
NWS OXNARD       N/A     59  48  67 CALM      29.91R
OXNARD AIRPORT CLEAR     61  49  64 W9        29.91R
*POINT MUGU    PTCLDY    61  48  62 W13       29.92R
SBA APT/GOLETA CLEAR     63  34  33 N14       29.91R
*SANTA BARBARA   N/A     64  33  32 E3        29.97R
*VENTURA         N/A     60  46  60 E3        29.93S

$$

CAZ044-045-020500-
VENTURA COUNTY VALLEYS


CITY           SKY/WX    TMP DP  RH WIND       PRES   REMARKS
*SIMI VALLEY     N/A     58  47  66 CALM      29.89R
*OJAI            N/A     55  43  63 CALM      29.87R
*FILLMORE        N/A     59  46  63 CALM      29.82S

$$

CAZ053-020500-
VENTURA COUNTY MOUNTAINS


CITY           SKY/WX    TMP DP  RH WIND       PRES   REMARKS
*LOCKWOOD VLY    N/A     39  10  30 MISG        N/A
*ROSE VALLEY     N/A     45  23  42 MISG        N/A

$$

CAZ034-035-036-020500-
CENTRAL COAST AND SANTA YNEZ VALLEY


CITY           SKY/WX    TMP DP  RH WIND       PRES   REMARKS
SAN LUIS OBISP CLEAR     51  44  77 NW14      30.04R
SANTA MARIA    CLEAR     52  43  71 NW17      30.04R

CITY           SKY/WX    TMP DP  RH WIND       PRES   REMARKS
*LOMPOC        CLEAR     52  41  66 W12G22    30.06R
*PISMO BEACH     N/A     55  42  61 CALM      30.04R
*SANTA YNEZ    FAIR      50  37  62 W6        30.01R

$$

CAZ037-038-051-020500-
SAN LUIS OBISPO COUNTY INTERIOR AND CUYAMA VALLEY


CITY           SKY/WX    TMP DP  RH WIND       PRES   REMARKS
*CUYAMA          N/A     58  22  24 CALM      29.97R
PASO ROBLES    CLEAR     56  32  40 NW18      30.05R

$$

CAZ032-033-061-020500-
SOUTHERN DESERTS


CITY           SKY/WX    TMP DP  RH WIND       PRES   REMARKS
BLYTHE         CLEAR     80  26  13 S9        29.75R
IMPERIAL       CLEAR     75  45  34 SW9       29.77R
PALM SPRINGS   CLEAR     78  45  30 NW22G31   29.79R
THERMAL        CLEAR     80  42  25 NW16      29.74R

$$

ELSEWHERE ACROSS THE WESTERN UNITED STATES AND MEXICO


CITY           SKY/WX    TMP DP  RH WIND       PRES   REMARKS
DENVER, CO     MOCLDY    46  39  76 E10       29.87R
GRAND CANYON,  MOCLDY    48  10  21 SW5       30.00R
HONOLULU, HI   PTCLDY    75  65  70 NE18      29.96R
KAHULUI, MAUI  PTCLDY    79  66  64 E14G23    29.93R
LAKE TAHOE, CA PTCLDY    32  13  45 CALM      30.05R
LAS VEGAS, NV  PTCLDY    75   9   8 SW14      29.73R
MAMMOTH LAKES, FAIR      37  14  38 NW10      29.99R WCI  30
MEXICO CITY, M MOCLDY    61  52  72 CALM      30.32R
PHOENIX, AZ    PTCLDY    79  24  13 SW5       29.78R
PORTLAND, OR   MOCLDY    46  42  86 CALM      30.34R
RENO, NV       LGT RAIN  43  32  65 N24G31    30.06R WCI  33
SALT LAKE CITY PTCLDY    46   1  15 CALM      29.98F
SAN DIEGO, CA  MOCLDY    66  55  67 NW5       29.98R
SAN FRANCISCO, CLEAR     54  49  83 W14       30.10R
SAN JOSE, CA   CLEAR     55  39  54 N6        30.11R
SEATTLE, WA    RAIN      47  42  83 CALM      30.31R
TIJUANA, MEX   PTCLDY    61  52  72 W5        30.00R

$$

STATION/POSITION TIME  TEMP    WIND        PRES    VSBY  WAVE
                       AIR SEA DIR/SP/G                  HT/PER
                 (UTC) (F)     (DEG/KT/KT) (MB)    (MI)  (FT/S)
POINT ARGUELLO B NOT AVBL
WEST SANTA BARBA 0300   56 57  320/ 27/ 35 1014.9F        11/ 9
POINT CONCEPTION NOT AVBL
EAST SANTA BARBA NOT AVBL
SANTA MONICA BAY 0400   62 64  280/ 14/ 17 1013.3R         7/ 7


USA.gov is the U.S. government's official web portal to all federal, state and local government web resources and services.